date,time,SUV Intensity [MED/Hr],UV Index,Daily total [MED],Since Last [MED]
27/07/2022,00:10:54,0.000,0.0,0.0,0.0
27/07/2022,00:11:55,0.000,0.0,0.0,0.0
27/07/2022,00:12:55,0.000,0.0,0.0,0.0
27/07/2022,00:13:55,0.001,0.0,0.0,0.0
27/07/2022,00:14:54,0.000,0.0,0.0,0.0
27/07/2022,00:15:55,0.000,0.0,0.0,0.0
27/07/2022,00:16:54,-0.000,0.0,0.0,0.0
27/07/2022,00:17:55,0.000,0.0,0.0,0.0
27/07/2022,00:18:55,0.000,0.0,0.0,0.0
27/07/2022,00:20:03,0.000,0.0,0.0,0.0
27/07/2022,00:20:54,0.000,0.0,0.0,0.0
27/07/2022,00:21:54,0.000,0.0,0.0,0.0
27/07/2022,00:23:03,0.000,0.0,0.0,0.0
27/07/2022,00:23:54,0.000,0.0,0.0,0.0
27/07/2022,00:24:55,0.000,0.0,0.0,0.0
27/07/2022,00:25:55,0.001,0.0,0.0,0.0
27/07/2022,00:26:55,0.001,0.0,0.0,0.0
27/07/2022,00:27:55,0.001,0.0,0.0,0.0
27/07/2022,00:28:54,-0.000,0.0,0.0,0.0
27/07/2022,00:29:55,0.000,0.0,0.0,0.0
27/07/2022,00:30:54,-0.000,0.0,0.0,0.0
27/07/2022,00:31:55,0.000,0.0,0.0,0.0
27/07/2022,00:32:55,0.001,0.0,0.0,0.0
27/07/2022,00:33:54,0.001,0.0,0.0,0.0
27/07/2022,00:34:54,0.000,0.0,0.0,0.0
27/07/2022,00:35:55,0.000,0.0,0.0,0.0
27/07/2022,00:36:54,0.001,0.0,0.0,0.0
27/07/2022,00:37:55,-0.000,0.0,0.0,0.0
27/07/2022,00:38:54,0.001,0.0,0.0,0.0
27/07/2022,00:39:54,-0.000,0.0,0.0,0.0
27/07/2022,00:40:55,0.001,0.0,0.0,0.0
27/07/2022,00:41:55,0.000,0.0,0.0,0.0
27/07/2022,00:42:54,0.001,0.0,0.0,0.0
27/07/2022,00:43:55,0.001,0.0,0.0,0.0
27/07/2022,00:45:11,0.000,0.0,0.0,0.0
27/07/2022,00:46:56,-0.000,0.0,0.0,0.0
27/07/2022,00:47:55,0.001,0.0,0.0,0.0
27/07/2022,00:48:54,0.001,0.0,0.0,0.0
27/07/2022,00:49:55,0.000,0.0,0.0,0.0
27/07/2022,00:50:54,0.001,0.0,0.0,0.0
27/07/2022,00:51:54,0.001,0.0,0.0,0.0
27/07/2022,00:52:55,0.001,0.0,0.0,0.0
27/07/2022,00:53:54,0.001,0.0,0.0,0.0
27/07/2022,00:54:55,0.000,0.0,0.0,0.0
27/07/2022,00:55:54,0.000,0.0,0.0,0.0
27/07/2022,00:56:54,0.001,0.0,0.0,0.0
27/07/2022,00:57:55,0.001,0.0,0.0,0.0
27/07/2022,00:58:55,0.002,0.0,0.0,0.0
27/07/2022,01:00:03,0.001,0.0,0.0,0.0
27/07/2022,01:00:54,0.001,0.0,0.0,0.0
27/07/2022,01:01:55,0.001,0.0,0.0,0.0
27/07/2022,01:02:54,0.001,0.0,0.0,0.0
27/07/2022,01:03:54,0.001,0.0,0.0,0.0
27/07/2022,01:04:55,0.001,0.0,0.0,0.0
27/07/2022,01:05:54,-0.000,0.0,0.0,0.0
27/07/2022,01:06:55,0.001,0.0,0.0,0.0
27/07/2022,01:08:03,0.001,0.0,0.0,0.0
27/07/2022,01:08:55,0.001,0.0,0.0,0.0
27/07/2022,01:09:55,0.001,0.0,0.0,0.0
27/07/2022,01:10:55,0.001,0.0,0.0,0.0
27/07/2022,01:11:55,0.001,0.0,0.0,0.0
27/07/2022,01:12:55,0.001,0.0,0.0,0.0
27/07/2022,01:13:54,0.002,0.0,0.0,0.0
27/07/2022,01:14:54,0.002,0.0,0.0,0.0
27/07/2022,01:15:55,0.001,0.0,0.0,0.0
27/07/2022,01:16:55,0.001,0.0,0.0,0.0
27/07/2022,01:17:55,-0.000,0.0,0.0,0.0
27/07/2022,01:18:55,0.001,0.0,0.0,0.0
27/07/2022,01:19:54,0.000,0.0,0.0,0.0
27/07/2022,01:20:55,0.001,0.0,0.0,0.0
27/07/2022,01:21:54,-0.000,0.0,0.0,0.0
27/07/2022,01:23:03,0.001,0.0,0.0,0.0
27/07/2022,01:23:53,0.001,0.0,0.0,0.0
27/07/2022,01:24:55,0.001,0.0,0.0,0.0
27/07/2022,01:25:55,0.001,0.0,0.0,0.0
27/07/2022,01:26:55,0.001,0.0,0.0,0.0
27/07/2022,01:27:55,0.001,0.0,0.0,0.0
27/07/2022,01:28:54,0.001,0.0,0.0,0.0
27/07/2022,01:29:54,0.001,0.0,0.0,0.0
27/07/2022,01:30:55,0.001,0.0,0.0,0.0
27/07/2022,01:31:54,0.001,0.0,0.0,0.0
27/07/2022,01:33:03,0.001,0.0,0.0,0.0
27/07/2022,01:33:55,0.001,0.0,0.0,0.0
27/07/2022,01:34:55,0.001,0.0,0.0,0.0
27/07/2022,01:35:55,0.001,0.0,0.0,0.0
27/07/2022,01:36:55,0.001,0.0,0.0,0.0
27/07/2022,01:37:55,0.001,0.0,0.0,0.0
27/07/2022,01:39:03,0.001,0.0,0.0,0.0
27/07/2022,01:39:55,0.002,0.0,0.0,0.0
27/07/2022,01:41:03,0.001,0.0,0.0,0.0
27/07/2022,01:41:55,0.001,0.0,0.0,0.0
27/07/2022,01:42:55,0.001,0.0,0.0,0.0
27/07/2022,01:43:55,0.001,0.0,0.0,0.0
27/07/2022,01:44:55,0.002,0.0,0.0,0.0
27/07/2022,01:45:55,0.000,0.0,0.0,0.0
27/07/2022,01:46:55,0.001,0.0,0.0,0.0
27/07/2022,01:47:55,0.001,0.0,0.0,0.0
27/07/2022,01:48:54,0.001,0.0,0.0,0.0
27/07/2022,01:49:55,0.001,0.0,0.0,0.0
27/07/2022,01:50:55,0.001,0.0,0.0,0.0
27/07/2022,01:51:56,0.000,0.0,0.0,0.0
27/07/2022,01:52:55,0.001,0.0,0.0,0.0
27/07/2022,01:54:03,0.001,0.0,0.0,0.0
27/07/2022,01:54:55,0.002,0.0,0.0,0.0
27/07/2022,01:55:54,0.001,0.0,0.0,0.0
27/07/2022,01:56:55,0.002,0.0,0.0,0.0
27/07/2022,01:57:55,0.001,0.0,0.0,0.0
27/07/2022,01:58:55,0.001,0.0,0.0,0.0
27/07/2022,01:59:55,0.001,0.0,0.0,0.0
27/07/2022,02:00:55,0.002,0.0,0.0,0.0
27/07/2022,02:01:55,0.001,0.0,0.0,0.0
27/07/2022,02:02:55,0.002,0.0,0.0,0.0
27/07/2022,02:03:55,0.001,0.0,0.0,0.0
27/07/2022,02:04:55,0.001,0.0,0.0,0.0
27/07/2022,02:05:55,0.001,0.0,0.0,0.0
27/07/2022,02:06:55,0.000,0.0,0.0,0.0
27/07/2022,02:07:55,0.001,0.0,0.0,0.0
27/07/2022,02:08:54,0.001,0.0,0.0,0.0
27/07/2022,02:09:55,0.001,0.0,0.0,0.0
27/07/2022,02:10:55,0.002,0.0,0.0,0.0
27/07/2022,02:12:03,0.001,0.0,0.0,0.0
27/07/2022,02:12:55,0.002,0.0,0.0,0.0
27/07/2022,02:13:54,0.002,0.0,0.0,0.0
27/07/2022,02:14:55,0.001,0.0,0.0,0.0
27/07/2022,02:15:55,0.001,0.0,0.0,0.0
27/07/2022,02:16:55,0.000,0.0,0.0,0.0
27/07/2022,02:17:54,0.001,0.0,0.0,0.0
27/07/2022,02:18:55,0.002,0.0,0.0,0.0
27/07/2022,02:19:55,0.001,0.0,0.0,0.0
27/07/2022,02:20:55,0.000,0.0,0.0,0.0
27/07/2022,02:21:55,0.002,0.0,0.0,0.0
27/07/2022,02:22:48,0.002,0.0,0.0,0.0
27/07/2022,02:23:55,0.001,0.0,0.0,0.0
27/07/2022,02:24:55,0.001,0.0,0.0,0.0
27/07/2022,02:25:55,0.001,0.0,0.0,0.0
27/07/2022,02:27:03,0.001,0.0,0.0,0.0
27/07/2022,02:27:55,0.002,0.0,0.0,0.0
27/07/2022,02:28:55,0.002,0.0,0.0,0.0
27/07/2022,02:29:55,0.000,0.0,0.0,0.0
27/07/2022,02:30:55,0.001,0.0,0.0,0.0
27/07/2022,02:31:54,0.001,0.0,0.0,0.0
27/07/2022,02:33:03,0.001,0.0,0.0,0.0
27/07/2022,02:33:54,0.001,0.0,0.0,0.0
27/07/2022,02:34:55,0.002,0.0,0.0,0.0
27/07/2022,02:35:55,0.001,0.0,0.0,0.0
27/07/2022,02:36:55,0.001,0.0,0.0,0.0
27/07/2022,02:37:55,0.000,0.0,0.0,0.0
27/07/2022,02:38:55,0.001,0.0,0.0,0.0
27/07/2022,02:39:55,0.001,0.0,0.0,0.0
27/07/2022,02:40:54,0.001,0.0,0.0,0.0
27/07/2022,02:41:55,0.002,0.0,0.0,0.0
27/07/2022,02:42:55,0.002,0.0,0.0,0.0
27/07/2022,02:43:55,0.001,0.0,0.0,0.0
27/07/2022,02:44:55,0.001,0.0,0.0,0.0
27/07/2022,02:45:55,0.001,0.0,0.0,0.0
27/07/2022,02:46:54,0.002,0.0,0.0,0.0
27/07/2022,02:48:03,0.002,0.0,0.0,0.0
27/07/2022,02:48:55,0.001,0.0,0.0,0.0
27/07/2022,02:49:55,0.001,0.0,0.0,0.0
27/07/2022,02:50:55,0.000,0.0,0.0,0.0
27/07/2022,02:52:03,0.001,0.0,0.0,0.0
27/07/2022,02:52:54,0.001,0.0,0.0,0.0
27/07/2022,02:53:56,0.001,0.0,0.0,0.0
27/07/2022,02:54:55,0.001,0.0,0.0,0.0
27/07/2022,02:55:55,0.002,0.0,0.0,0.0
27/07/2022,02:56:54,0.001,0.0,0.0,0.0
27/07/2022,02:57:55,0.000,0.0,0.0,0.0
27/07/2022,02:58:55,0.001,0.0,0.0,0.0
27/07/2022,02:59:55,0.002,0.0,0.0,0.0
27/07/2022,03:01:03,0.001,0.0,0.0,0.0
27/07/2022,03:01:55,0.002,0.0,0.0,0.0
27/07/2022,03:02:55,0.002,0.0,0.0,0.0
27/07/2022,03:03:54,0.001,0.0,0.0,0.0
27/07/2022,03:04:55,0.001,0.0,0.0,0.0
27/07/2022,03:05:55,0.002,0.0,0.0,0.0
27/07/2022,03:06:54,0.001,0.0,0.0,0.0
27/07/2022,03:07:55,0.001,0.0,0.0,0.0
27/07/2022,03:08:55,0.002,0.0,0.0,0.0
27/07/2022,03:09:55,0.000,0.0,0.0,0.0
27/07/2022,03:10:55,0.001,0.0,0.0,0.0
27/07/2022,03:11:55,0.002,0.0,0.0,0.0
27/07/2022,03:12:54,0.001,0.0,0.0,0.0
27/07/2022,03:13:54,0.001,0.0,0.0,0.0
27/07/2022,03:14:55,0.001,0.0,0.0,0.0
27/07/2022,03:15:55,0.001,0.0,0.0,0.0
27/07/2022,03:16:55,0.001,0.0,0.0,0.0
27/07/2022,03:17:55,0.001,0.0,0.0,0.0
27/07/2022,03:18:55,0.001,0.0,0.0,0.0
27/07/2022,03:19:55,0.001,0.0,0.0,0.0
27/07/2022,03:20:55,0.001,0.0,0.0,0.0
27/07/2022,03:22:03,0.003,0.0,0.0,0.0
27/07/2022,03:22:55,0.002,0.0,0.0,0.0
27/07/2022,03:23:55,0.001,0.0,0.0,0.0
27/07/2022,03:24:55,0.001,0.0,0.0,0.0
27/07/2022,03:25:55,0.003,0.0,0.0,0.0
27/07/2022,03:27:03,0.001,0.0,0.0,0.0
27/07/2022,03:27:55,0.002,0.0,0.0,0.0
27/07/2022,03:28:55,0.001,0.0,0.0,0.0
27/07/2022,03:29:55,0.002,0.0,0.0,0.0
27/07/2022,03:30:55,0.001,0.0,0.0,0.0
27/07/2022,03:31:55,0.002,0.0,0.0,0.0
27/07/2022,03:32:55,0.002,0.0,0.0,0.0
27/07/2022,03:33:55,0.001,0.0,0.0,0.0
27/07/2022,03:34:55,0.001,0.0,0.0,0.0
27/07/2022,03:35:55,0.001,0.0,0.0,0.0
27/07/2022,03:36:55,0.002,0.0,0.0,0.0
27/07/2022,03:37:55,0.001,0.0,0.0,0.0
27/07/2022,03:38:46,0.003,0.0,0.0,0.0
27/07/2022,03:39:56,0.001,0.0,0.0,0.0
27/07/2022,03:40:55,0.001,0.0,0.0,0.0
27/07/2022,03:41:54,0.002,0.0,0.0,0.0
27/07/2022,03:42:55,0.002,0.0,0.0,0.0
27/07/2022,03:43:55,0.001,0.0,0.0,0.0
27/07/2022,03:44:55,0.001,0.0,0.0,0.0
27/07/2022,03:45:55,0.002,0.0,0.0,0.0
27/07/2022,03:46:55,0.003,0.0,0.0,0.0
27/07/2022,03:47:55,0.001,0.0,0.0,0.0
27/07/2022,03:48:55,0.002,0.0,0.0,0.0
27/07/2022,03:49:55,0.002,0.0,0.0,0.0
27/07/2022,03:50:55,0.001,0.0,0.0,0.0
27/07/2022,03:51:55,0.002,0.0,0.0,0.0
27/07/2022,03:52:55,0.002,0.0,0.0,0.0
27/07/2022,03:53:55,0.002,0.0,0.0,0.0
27/07/2022,03:54:54,0.002,0.0,0.0,0.0
27/07/2022,03:55:56,0.002,0.0,0.0,0.0
27/07/2022,03:56:55,0.002,0.0,0.0,0.0
27/07/2022,03:57:55,0.002,0.0,0.0,0.0
27/07/2022,03:58:55,0.003,0.0,0.0,0.0
27/07/2022,03:59:55,0.003,0.0,0.0,0.0
27/07/2022,04:00:55,0.001,0.0,0.0,0.0
27/07/2022,04:01:55,0.002,0.0,0.0,0.0
27/07/2022,04:02:55,0.003,0.0,0.0,0.0
27/07/2022,04:03:55,0.001,0.0,0.0,0.0
27/07/2022,04:05:03,0.002,0.0,0.0,0.0
27/07/2022,04:05:55,0.002,0.0,0.0,0.0
27/07/2022,04:06:55,0.001,0.0,0.0,0.0
27/07/2022,04:07:55,0.002,0.0,0.0,0.0
27/07/2022,04:08:55,0.002,0.0,0.0,0.0
27/07/2022,04:09:55,0.002,0.0,0.0,0.0
27/07/2022,04:11:03,0.002,0.0,0.0,0.0
27/07/2022,04:11:55,0.002,0.0,0.0,0.0
27/07/2022,04:12:56,0.002,0.0,0.0,0.0
27/07/2022,04:14:04,0.002,0.0,0.0,0.0
27/07/2022,04:14:55,0.001,0.0,0.0,0.0
27/07/2022,04:15:58,0.003,0.0,0.0,0.0
27/07/2022,04:16:55,0.002,0.0,0.0,0.0
27/07/2022,04:17:55,0.002,0.0,0.0,0.0
27/07/2022,04:18:55,0.003,0.0,0.0,0.0
27/07/2022,04:19:55,0.003,0.0,0.0,0.0
27/07/2022,04:20:55,0.003,0.0,0.0,0.0
27/07/2022,04:21:55,0.004,0.0,0.0,0.0
27/07/2022,04:22:55,0.004,0.0,0.0,0.0
27/07/2022,04:24:03,0.004,0.0,0.0,0.0
27/07/2022,04:24:55,0.003,0.0,0.0,0.0
27/07/2022,04:25:55,0.004,0.0,0.0,0.0
27/07/2022,04:26:56,0.004,0.0,0.0,0.0
27/07/2022,04:27:55,0.004,0.0,0.0,0.0
27/07/2022,04:28:55,0.004,0.0,0.0,0.0
27/07/2022,04:30:11,0.004,0.0,0.0,0.0
27/07/2022,04:31:55,0.004,0.0,0.0,0.0
27/07/2022,04:32:55,0.004,0.0,0.0,0.0
27/07/2022,04:33:55,0.004,0.0,0.0,0.0
27/07/2022,04:34:55,0.004,0.0,0.0,0.0
27/07/2022,04:35:55,0.004,0.0,0.0,0.0
27/07/2022,04:36:55,0.004,0.0,0.0,0.0
27/07/2022,04:37:55,0.004,0.0,0.0,0.0
27/07/2022,04:38:55,0.004,0.0,0.0,0.0
27/07/2022,04:39:55,0.004,0.0,0.0,0.0
27/07/2022,04:40:55,0.004,0.0,0.0,0.0
27/07/2022,04:41:55,0.004,0.0,0.0,0.0
27/07/2022,04:42:55,0.005,0.0,0.0,0.0
27/07/2022,04:43:55,0.005,0.0,0.0,0.0
27/07/2022,04:45:03,0.005,0.0,0.0,0.0
27/07/2022,04:45:55,0.004,0.0,0.0,0.0
27/07/2022,04:46:55,0.005,0.0,0.0,0.0
27/07/2022,04:47:55,0.005,0.0,0.0,0.0
27/07/2022,04:48:55,0.005,0.0,0.0,0.0
27/07/2022,04:49:55,0.004,0.0,0.0,0.0
27/07/2022,04:50:55,0.006,0.0,0.0,0.0
27/07/2022,04:51:55,0.006,0.0,0.0,0.0
27/07/2022,04:52:55,0.006,0.0,0.0,0.0
27/07/2022,04:54:02,0.007,0.0,0.0,0.0
27/07/2022,04:54:55,0.007,0.0,0.0,0.0
27/07/2022,04:55:55,0.007,0.0,0.0,0.0
27/07/2022,04:56:55,0.007,0.0,0.0,0.0
27/07/2022,04:57:55,0.007,0.0,0.001,0.001
27/07/2022,04:58:55,0.008,0.0,0.001,0.0
27/07/2022,05:00:03,0.008,0.0,0.001,0.0
27/07/2022,05:01:04,0.008,0.0,0.001,0.0
27/07/2022,05:01:55,0.008,0.0,0.001,0.0
27/07/2022,05:02:55,0.008,0.0,0.001,0.0
27/07/2022,05:03:56,0.009,0.0,0.001,0.0
27/07/2022,05:05:12,0.009,0.0,0.002,0.001
27/07/2022,05:06:56,0.010,0.0,0.002,0.0
27/07/2022,05:07:55,0.011,0.0,0.002,0.0
27/07/2022,05:08:55,0.012,0.0,0.002,0.0
27/07/2022,05:09:55,0.014,0.0,0.002,0.0
27/07/2022,05:10:55,0.014,0.0,0.003,0.001
27/07/2022,05:11:55,0.014,0.0,0.003,0.0
27/07/2022,05:13:03,0.017,0.0,0.003,0.0
27/07/2022,05:13:55,0.018,0.0,0.003,0.0
27/07/2022,05:14:55,0.019,0.0,0.004,0.001
27/07/2022,05:16:04,0.018,0.0,0.004,0.0
27/07/2022,05:16:55,0.018,0.0,0.004,0.0
27/07/2022,05:17:57,0.019,0.0,0.005,0.001
27/07/2022,05:18:55,0.017,0.0,0.005,0.0
27/07/2022,05:19:55,0.018,0.0,0.005,0.0
27/07/2022,05:20:55,0.020,0.0,0.006,0.001
27/07/2022,05:21:55,0.021,0.0,0.006,0.0
27/07/2022,05:22:55,0.024,0.0,0.006,0.0
27/07/2022,05:23:55,0.027,0.0,0.007,0.001
27/07/2022,05:24:55,0.028,0.0,0.007,0.0
27/07/2022,05:25:55,0.030,0.0,0.008,0.001
27/07/2022,05:26:55,0.029,0.0,0.008,0.0
27/07/2022,05:27:55,0.032,0.0,0.009,0.001
27/07/2022,05:28:56,0.033,0.0,0.009,0.0
27/07/2022,05:29:55,0.034,0.0,0.01,0.001
27/07/2022,05:31:04,0.034,0.0,0.01,0.0
27/07/2022,05:31:55,0.037,0.0,0.011,0.001
27/07/2022,05:32:55,0.037,0.0,0.011,0.0
27/07/2022,05:33:55,0.038,0.0,0.012,0.001
27/07/2022,05:34:55,0.040,0.0,0.013,0.001
27/07/2022,05:35:55,0.040,0.0,0.013,0.0
27/07/2022,05:36:55,0.041,0.0,0.014,0.001
27/07/2022,05:37:55,0.041,0.0,0.015,0.001
27/07/2022,05:38:55,0.043,0.0,0.016,0.001
27/07/2022,05:39:55,0.044,0.0,0.016,0.0
27/07/2022,05:41:03,0.046,0.0,0.017,0.001
27/07/2022,05:41:55,0.047,0.0,0.018,0.001
27/07/2022,05:42:55,0.048,0.0,0.019,0.001
27/07/2022,05:43:55,0.049,0.0,0.019,0.0
27/07/2022,05:44:55,0.050,0.0,0.02,0.001
27/07/2022,05:46:12,0.052,0.0,0.021,0.001
27/07/2022,05:47:56,0.055,0.0,0.023,0.002
27/07/2022,05:48:55,0.056,0.0,0.024,0.001
27/07/2022,05:49:55,0.057,0.0,0.025,0.001
27/07/2022,05:50:55,0.058,0.0,0.026,0.001
27/07/2022,05:51:56,0.060,0.0,0.027,0.001
27/07/2022,05:52:55,0.061,0.0,0.028,0.001
27/07/2022,05:53:55,0.063,0.0,0.029,0.001
27/07/2022,05:54:55,0.064,0.0,0.03,0.001
27/07/2022,05:56:03,0.066,0.0,0.031,0.001
27/07/2022,05:56:55,0.066,0.0,0.032,0.001
27/07/2022,05:57:56,0.068,0.0,0.033,0.001
27/07/2022,05:59:03,0.069,0.0,0.034,0.001
27/07/2022,05:59:55,0.070,0.0,0.035,0.001
27/07/2022,06:00:55,0.071,0.0,0.036,0.001
27/07/2022,06:01:55,0.072,0.0,0.038,0.002
27/07/2022,06:02:56,0.073,0.0,0.039,0.001
27/07/2022,06:03:55,0.074,0.0,0.04,0.001
27/07/2022,06:04:55,0.074,0.0,0.041,0.001
27/07/2022,06:05:56,0.075,0.0,0.043,0.002
27/07/2022,06:06:55,0.075,0.0,0.044,0.001
27/07/2022,06:07:55,0.075,0.0,0.045,0.001
27/07/2022,06:08:56,0.076,0.0,0.046,0.001
27/07/2022,06:09:55,0.078,0.0,0.047,0.001
27/07/2022,06:10:55,0.079,0.0,0.049,0.002
27/07/2022,06:11:55,0.080,0.0,0.05,0.001
27/07/2022,06:12:55,0.079,0.0,0.051,0.001
27/07/2022,06:13:55,0.079,0.0,0.053,0.002
27/07/2022,06:15:03,0.077,0.0,0.054,0.001
27/07/2022,06:15:55,0.078,0.0,0.055,0.001
27/07/2022,06:16:56,0.080,0.0,0.057,0.002
27/07/2022,06:17:55,0.082,0.0,0.058,0.001
27/07/2022,06:18:55,0.086,0.0,0.059,0.001
27/07/2022,06:19:56,0.089,0.0,0.061,0.002
27/07/2022,06:20:55,0.090,0.0,0.062,0.001
27/07/2022,06:21:55,0.090,0.0,0.064,0.002
27/07/2022,06:22:55,0.091,0.0,0.065,0.001
27/07/2022,06:23:55,0.093,0.0,0.067,0.002
27/07/2022,06:24:55,0.096,0.0,0.069,0.002
27/07/2022,06:25:57,0.099,0.0,0.07,0.001
27/07/2022,06:26:55,0.103,0.0,0.072,0.002
27/07/2022,06:27:55,0.108,0.0,0.074,0.002
27/07/2022,06:28:55,0.116,0.0,0.076,0.002
27/07/2022,06:30:03,0.125,0.0,0.078,0.002
27/07/2022,06:30:55,0.130,0.0,0.08,0.002
27/07/2022,06:31:56,0.131,0.0,0.082,0.002
27/07/2022,06:32:55,0.135,0.0,0.084,0.002
27/07/2022,06:33:55,0.141,0.0,0.086,0.002
27/07/2022,06:34:55,0.142,0.0,0.089,0.003
27/07/2022,06:35:55,0.140,0.0,0.091,0.002
27/07/2022,06:36:55,0.142,0.0,0.093,0.002
27/07/2022,06:37:56,0.147,0.0,0.096,0.003
27/07/2022,06:38:55,0.147,0.0,0.098,0.002
27/07/2022,06:39:55,0.150,0.0,0.101,0.003
27/07/2022,06:40:55,0.148,0.0,0.103,0.002
27/07/2022,06:41:56,0.146,0.0,0.106,0.003
27/07/2022,06:42:55,0.144,0.0,0.108,0.002
27/07/2022,06:43:55,0.144,0.0,0.111,0.003
27/07/2022,06:44:55,0.146,0.0,0.113,0.002
27/07/2022,06:45:55,0.148,0.0,0.115,0.002
27/07/2022,06:46:56,0.154,0.0,0.118,0.003
27/07/2022,06:47:55,0.160,0.0,0.121,0.003
27/07/2022,06:48:55,0.162,0.0,0.123,0.002
27/07/2022,06:49:55,0.163,0.0,0.126,0.003
27/07/2022,06:50:55,0.165,0.0,0.129,0.003
27/07/2022,06:51:56,0.150,0.0,0.131,0.002
27/07/2022,06:52:55,0.169,0.0,0.134,0.003
27/07/2022,06:53:55,0.173,0.0,0.137,0.003
27/07/2022,06:54:56,0.176,0.0,0.14,0.003
27/07/2022,06:55:46,0.182,0.0,0.142,0.002
27/07/2022,06:56:56,0.187,0.0,0.146,0.004
27/07/2022,06:58:03,0.194,0.0,0.149,0.003
27/07/2022,06:58:56,0.197,0.0,0.152,0.003
27/07/2022,06:59:56,0.204,0.0,0.156,0.004
27/07/2022,07:00:56,0.212,0.0,0.159,0.003
27/07/2022,07:01:56,0.223,1.0,0.163,0.004
27/07/2022,07:02:55,0.232,1.0,0.167,0.004
27/07/2022,07:03:55,0.238,1.0,0.17,0.003
27/07/2022,07:05:03,0.239,1.0,0.175,0.005
27/07/2022,07:05:56,0.236,1.0,0.178,0.003
27/07/2022,07:06:55,0.235,1.0,0.182,0.004
27/07/2022,07:07:56,0.234,1.0,0.186,0.004
27/07/2022,07:08:55,0.231,1.0,0.19,0.004
27/07/2022,07:09:55,0.229,1.0,0.194,0.004
27/07/2022,07:10:55,0.227,1.0,0.198,0.004
27/07/2022,07:11:55,0.227,1.0,0.201,0.003
27/07/2022,07:13:04,0.230,1.0,0.206,0.005
27/07/2022,07:13:56,0.234,1.0,0.209,0.003
27/07/2022,07:14:55,0.235,1.0,0.213,0.004
27/07/2022,07:15:55,0.237,1.0,0.217,0.004
27/07/2022,07:16:56,0.237,1.0,0.221,0.004
27/07/2022,07:17:55,0.235,1.0,0.225,0.004
27/07/2022,07:18:55,0.236,1.0,0.229,0.004
27/07/2022,07:19:56,0.237,1.0,0.233,0.004
27/07/2022,07:20:55,0.238,1.0,0.237,0.004
27/07/2022,07:21:56,0.241,1.0,0.241,0.004
27/07/2022,07:23:03,0.247,1.0,0.245,0.004
27/07/2022,07:23:55,0.253,1.0,0.249,0.004
27/07/2022,07:24:56,0.259,1.0,0.253,0.004
27/07/2022,07:25:55,0.262,1.0,0.258,0.005
27/07/2022,07:26:55,0.265,1.0,0.262,0.004
27/07/2022,07:27:56,0.268,1.0,0.266,0.004
27/07/2022,07:28:55,0.271,1.0,0.271,0.005
27/07/2022,07:29:55,0.272,1.0,0.275,0.004
27/07/2022,07:30:55,0.274,1.0,0.28,0.005
27/07/2022,07:31:56,0.279,1.0,0.285,0.005
27/07/2022,07:32:55,0.287,1.0,0.289,0.004
27/07/2022,07:33:55,0.296,1.0,0.294,0.005
27/07/2022,07:35:04,0.308,1.0,0.3,0.006
27/07/2022,07:35:55,0.311,1.0,0.304,0.004
27/07/2022,07:36:56,0.316,1.0,0.31,0.006
27/07/2022,07:37:55,0.319,1.0,0.315,0.005
27/07/2022,07:38:55,0.322,1.0,0.32,0.005
27/07/2022,07:39:56,0.329,1.0,0.326,0.006
27/07/2022,07:41:04,0.340,1.0,0.332,0.006
27/07/2022,07:41:56,0.358,1.0,0.337,0.005
27/07/2022,07:42:55,0.381,1.0,0.343,0.006
27/07/2022,07:43:55,0.420,1.0,0.35,0.007
27/07/2022,07:44:55,0.427,1.0,0.357,0.007
27/07/2022,07:45:55,0.425,1.0,0.364,0.007
27/07/2022,07:46:56,0.430,1.0,0.371,0.007
27/07/2022,07:47:55,0.438,1.0,0.378,0.007
27/07/2022,07:48:55,0.466,1.0,0.386,0.008
27/07/2022,07:49:56,0.455,1.0,0.393,0.007
27/07/2022,07:51:04,0.451,1.0,0.402,0.009
27/07/2022,07:51:55,0.471,1.0,0.408,0.006
27/07/2022,07:52:56,0.483,1.0,0.417,0.009
27/07/2022,07:53:55,0.423,1.0,0.425,0.008
27/07/2022,07:54:55,0.440,1.0,0.432,0.007
27/07/2022,07:55:55,0.440,1.0,0.439,0.007
27/07/2022,07:56:56,0.469,1.0,0.447,0.008
27/07/2022,07:57:55,0.498,1.0,0.455,0.008
27/07/2022,07:58:55,0.501,1.0,0.463,0.008
27/07/2022,07:59:56,0.507,1.0,0.471,0.008
27/07/2022,08:00:55,0.501,1.0,0.48,0.009
27/07/2022,08:01:55,0.448,1.0,0.488,0.008
27/07/2022,08:03:04,0.447,1.0,0.496,0.008
27/07/2022,08:03:55,0.456,1.0,0.503,0.007
27/07/2022,08:04:55,0.534,1.0,0.511,0.008
27/07/2022,08:06:04,0.471,1.0,0.521,0.01
27/07/2022,08:06:55,0.540,1.0,0.528,0.007
27/07/2022,08:07:55,0.564,1.0,0.537,0.009
27/07/2022,08:08:55,0.582,1.0,0.546,0.009
27/07/2022,08:09:55,0.592,1.0,0.556,0.01
27/07/2022,08:10:56,0.597,1.0,0.566,0.01
27/07/2022,08:11:55,0.601,1.0,0.576,0.01
27/07/2022,08:12:55,0.628,1.0,0.586,0.01
27/07/2022,08:13:55,0.540,1.0,0.596,0.01
27/07/2022,08:14:56,0.639,1.0,0.606,0.01
27/07/2022,08:15:55,0.644,1.0,0.617,0.011
27/07/2022,08:16:55,0.654,2.0,0.628,0.011
27/07/2022,08:17:56,0.669,2.0,0.639,0.011
27/07/2022,08:18:55,0.681,2.0,0.65,0.011
27/07/2022,08:19:56,0.686,2.0,0.661,0.011
27/07/2022,08:20:55,0.705,2.0,0.673,0.012
27/07/2022,08:21:56,0.720,2.0,0.685,0.012
27/07/2022,08:22:55,0.728,2.0,0.697,0.012
27/07/2022,08:24:04,0.733,2.0,0.711,0.014
27/07/2022,08:24:55,0.732,2.0,0.721,0.01
27/07/2022,08:25:55,0.732,2.0,0.733,0.012
27/07/2022,08:27:08,0.700,2.0,0.748,0.015
27/07/2022,08:28:56,0.725,2.0,0.769,0.021
27/07/2022,08:29:56,0.711,2.0,0.781,0.012
27/07/2022,08:30:55,0.700,2.0,0.793,0.012
27/07/2022,08:31:55,0.667,2.0,0.804,0.011
27/07/2022,08:32:56,0.733,2.0,0.816,0.012
27/07/2022,08:33:55,0.692,2.0,0.828,0.012
27/07/2022,08:34:55,0.636,1.0,0.838,0.01
27/07/2022,08:35:56,0.624,1.0,0.849,0.011
27/07/2022,08:37:04,0.675,2.0,0.861,0.012
27/07/2022,08:37:55,0.780,2.0,0.872,0.011
27/07/2022,08:38:55,0.652,1.0,0.883,0.011
27/07/2022,08:39:56,0.645,1.0,0.894,0.011
27/07/2022,08:40:55,0.694,2.0,0.905,0.011
27/07/2022,08:41:55,0.564,1.0,0.914,0.009
27/07/2022,08:42:55,0.538,1.0,0.923,0.009
27/07/2022,08:43:56,0.558,1.0,0.933,0.01
27/07/2022,08:44:55,0.560,1.0,0.943,0.01
27/07/2022,08:45:57,0.574,1.0,0.952,0.009
27/07/2022,08:46:55,0.585,1.0,0.962,0.01
27/07/2022,08:47:56,0.577,1.0,0.972,0.01
27/07/2022,08:48:56,0.560,1.0,0.981,0.009
27/07/2022,08:49:55,0.549,1.0,0.99,0.009
27/07/2022,08:50:56,0.545,1.0,0.999,0.009
27/07/2022,08:51:55,0.543,1.0,1.009,0.01
27/07/2022,08:52:55,0.544,1.0,1.017,0.008
27/07/2022,08:53:56,0.540,1.0,1.027,0.01
27/07/2022,08:55:04,0.531,1.0,1.037,0.01
27/07/2022,08:55:56,0.528,1.0,1.044,0.007
27/07/2022,08:56:55,0.530,1.0,1.053,0.009
27/07/2022,08:58:04,0.536,1.0,1.063,0.01
27/07/2022,08:58:55,0.553,1.0,1.071,0.008
27/07/2022,08:59:56,0.575,1.0,1.081,0.01
27/07/2022,09:00:56,0.594,1.0,1.09,0.009
27/07/2022,09:01:55,0.607,1.0,1.1,0.01
27/07/2022,09:02:55,0.623,1.0,1.111,0.011
27/07/2022,09:03:55,0.788,2.0,1.121,0.01
27/07/2022,09:04:55,0.632,1.0,1.134,0.013
27/07/2022,09:05:56,0.591,1.0,1.144,0.01
27/07/2022,09:06:55,0.584,1.0,1.154,0.01
27/07/2022,09:07:55,0.521,1.0,1.163,0.009
27/07/2022,09:08:55,0.490,1.0,1.172,0.009
27/07/2022,09:10:04,0.480,1.0,1.181,0.009
27/07/2022,09:10:55,0.482,1.0,1.188,0.007
27/07/2022,09:11:56,0.478,1.0,1.196,0.008
27/07/2022,09:12:55,0.466,1.0,1.204,0.008
27/07/2022,09:13:56,0.477,1.0,1.212,0.008
27/07/2022,09:14:55,0.491,1.0,1.22,0.008
27/07/2022,09:16:04,0.506,1.0,1.229,0.009
27/07/2022,09:16:55,0.515,1.0,1.236,0.007
27/07/2022,09:17:56,0.524,1.0,1.245,0.009
27/07/2022,09:18:55,0.546,1.0,1.254,0.009
27/07/2022,09:19:56,0.596,1.0,1.263,0.009
27/07/2022,09:20:56,0.863,2.0,1.276,0.013
27/07/2022,09:22:12,0.825,2.0,1.294,0.018
27/07/2022,09:23:56,0.643,1.0,1.313,0.019
27/07/2022,09:24:55,1.024,2.0,1.327,0.014
27/07/2022,09:25:56,0.986,2.0,1.344,0.017
27/07/2022,09:26:55,0.971,2.0,1.36,0.016
27/07/2022,09:28:08,0.932,2.0,1.381,0.021
27/07/2022,09:29:56,0.704,2.0,1.407,0.026
27/07/2022,09:30:56,0.633,1.0,1.418,0.011
27/07/2022,09:31:56,0.581,1.0,1.428,0.01
27/07/2022,09:32:55,0.520,1.0,1.437,0.009
27/07/2022,09:33:55,0.462,1.0,1.445,0.008
27/07/2022,09:34:56,0.408,1.0,1.453,0.008
27/07/2022,09:35:55,0.362,1.0,1.459,0.006
27/07/2022,09:36:56,0.337,1.0,1.465,0.006
27/07/2022,09:37:55,0.337,1.0,1.47,0.005
27/07/2022,09:38:55,0.346,1.0,1.476,0.006
27/07/2022,09:39:55,0.350,1.0,1.482,0.006
27/07/2022,09:41:04,0.351,1.0,1.488,0.006
27/07/2022,09:41:58,0.355,1.0,1.494,0.006
27/07/2022,09:42:56,0.366,1.0,1.5,0.006
27/07/2022,09:44:03,0.384,1.0,1.507,0.007
27/07/2022,09:44:56,0.413,1.0,1.512,0.005
27/07/2022,09:45:55,0.438,1.0,1.521,0.009
27/07/2022,09:47:04,0.431,1.0,1.529,0.008
27/07/2022,09:47:57,0.444,1.0,1.535,0.006
27/07/2022,09:48:55,0.472,1.0,1.543,0.008
27/07/2022,09:49:56,0.492,1.0,1.551,0.008
27/07/2022,09:50:55,0.503,1.0,1.559,0.008
27/07/2022,09:51:55,0.507,1.0,1.568,0.009
27/07/2022,09:52:56,0.517,1.0,1.576,0.008
27/07/2022,09:53:55,0.529,1.0,1.585,0.009
27/07/2022,09:54:55,0.534,1.0,1.594,0.009
27/07/2022,09:55:55,0.535,1.0,1.603,0.009
27/07/2022,09:56:56,0.521,1.0,1.611,0.008
27/07/2022,09:57:55,0.498,1.0,1.62,0.009
27/07/2022,09:59:04,0.468,1.0,1.629,0.009
27/07/2022,09:59:55,0.448,1.0,1.636,0.007
27/07/2022,10:00:55,0.430,1.0,1.643,0.007
27/07/2022,10:01:56,0.421,1.0,1.65,0.007
27/07/2022,10:02:55,0.412,1.0,1.657,0.007
27/07/2022,10:03:55,0.396,1.0,1.664,0.007
27/07/2022,10:04:56,0.385,1.0,1.67,0.006
27/07/2022,10:05:55,0.375,1.0,1.677,0.007
27/07/2022,10:06:56,0.373,1.0,1.683,0.006
27/07/2022,10:07:55,0.375,1.0,1.689,0.006
27/07/2022,10:08:55,0.384,1.0,1.695,0.006
27/07/2022,10:09:56,0.399,1.0,1.702,0.007
27/07/2022,10:10:55,0.420,1.0,1.709,0.007
27/07/2022,10:11:56,0.433,1.0,1.716,0.007
27/07/2022,10:12:55,0.439,1.0,1.723,0.007
27/07/2022,10:13:56,0.445,1.0,1.73,0.007
27/07/2022,10:15:04,0.444,1.0,1.739,0.009
27/07/2022,10:15:56,0.447,1.0,1.745,0.006